HB9KNR Weather Reports


Display with metric or nautical units.
time (UTC)temp
F
wind
direction
speed
MPH
gust
MPH
rain 1hr
in
rain 24hr
in
rain mn
in
humidity
%
barometer
mb
20260510030517 50 0.0 0.0 0.00 0.00 0.00 84 1011.3
20260510025517 50 0.0 0.0 0.00 0.00 0.00 84 1011.4
20260510024556 50 0.0 0.0 0.00 0.00 0.00 84 1011.3
20260510023516 50 0.0 0.0 0.00 0.00 0.00 84 1011.3
20260510022516 51 0.0 0.0 0.00 0.00 0.00 83 1011.3
20260510021516 51 0.0 0.0 0.00 0.00 0.00 83 1011.3
20260510020517 51 0.0 0.0 0.00 0.00 0.00 82 1011.4
20260510015516 51 0.0 0.0 0.00 0.00 0.00 82 1011.4
20260510014516 51 0.0 0.0 0.00 0.00 0.00 82 1011.5
20260510013536 52 0.0 0.0 0.00 0.00 0.00 82 1011.5
20260510012516 52 0.0 0.0 0.00 0.00 0.00 81 1011.5
20260510011517 52 0.0 0.0 0.00 0.00 0.00 81 1011.5
20260510010517 52 0.0 0.0 0.00 0.00 0.00 81 1011.6
20260510005517 52 0.0 0.0 0.00 0.00 0.00 80 1011.6
20260510004516 53 0.0 0.0 0.00 0.00 0.00 80 1011.6
20260510003516 53 0.0 0.0 0.00 0.00 0.00 80 1011.4
20260510002516 53 0.0 0.0 0.00 0.00 0.00 80 1011.5
20260510001516 53 0.0 0.0 0.00 0.00 0.00 79 1011.5
20260510000517 54 0.0 0.0 0.00 0.00 0.00 79 1011.4
20260509235516 54 0.0 0.0 0.00 0.00 0.00 78 1011.6
20260509234516 54 0.0 0.0 0.00 0.01 0.00 77 1011.7
20260509233517 54 0.0 0.0 0.00 0.01 0.00 76 1011.8
20260509232516 54 0.0 0.0 0.00 0.01 0.00 75 1011.9
20260509231516 55 0.0 0.0 0.00 0.01 0.00 75 1011.9
20260509230516 55 0.0 0.0 0.00 0.01 0.00 74 1011.9
20260509225636 55 0.0 0.0 0.00 0.01 0.00 74 1012.0
20260509224516 55 0.0 0.0 0.00 0.01 0.00 74 1012.1
20260509223516 56 0.0 0.0 0.00 0.01 0.00 73 1012.2
20260509222536 56 0.0 0.0 0.00 0.01 0.00 73 1012.4
20260509221516 56 0.0 0.0 0.00 0.01 0.00 73 1012.3
20260509220536 56 0.0 0.0 0.00 0.01 0.00 72 1012.2
20260509215537 56 0.0 0.0 0.00 0.01 0.01 72 1012.1
20260509214517 57 0.0 0.0 0.00 0.01 0.01 71 1012.2
20260509213517 57 0.0 0.0 0.00 0.01 0.01 70 1012.2
20260509212517 57 0.0 0.0 0.00 0.01 0.01 70 1012.2
20260509211517 57 0.0 0.0 0.00 0.01 0.01 69 1012.1
20260509210517 58 0.0 0.0 0.00 0.01 0.01 69 1012.2
20260509205517 58 0.0 1.0 0.00 0.01 0.01 68 1012.1
20260509204517 58 0.0 1.0 0.00 0.01 0.01 68 1012.2
20260509203517 59 0.0 1.0 0.00 0.01 0.01 67 1012.2
20260509202517 59 0.0 0.0 0.00 0.01 0.01 67 1012.3
20260509201517 59 0.0 1.0 0.00 0.01 0.01 66 1012.2
20260509200517 60 0.0 1.0 0.00 0.01 0.01 66 1012.3
20260509195517 60 0.0 1.0 0.00 0.01 0.01 66 1012.3
20260509194537 61 0.0 1.0 0.00 0.01 0.01 64 1012.3
20260509193517 61 0.0 0.0 0.00 0.01 0.01 62 1012.1
20260509192517 62 0.0 1.0 0.00 0.01 0.01 60 1012.1
20260509191517 63 0.0 1.0 0.00 0.01 0.01 59 1012.0
20260509190517 64 0.0 0.0 0.00 0.01 0.01 57 1012.1
20260509185537 65 0.0 1.0 0.00 0.01 0.01 56 1012.2
20260509184517 66 0.0 1.0 0.00 0.01 0.01 55 1012.1
20260509183517 67 0.0 0.0 0.00 0.01 0.01 54 1012.2
20260509182537 68 0.0 0.0 0.00 0.01 0.01 53 1012.2
20260509181517 69 0.0 0.0 0.00 0.01 0.01 51 1012.1
20260509180517 69 0.0 0.0 0.00 0.01 0.01 50 1011.9
20260509175517 70 0.0 0.0 0.00 0.01 0.01 49 1012.0
20260509174516 70 0.0 0.0 0.00 0.01 0.01 45 1012.1
20260509173517 71 0.0 0.0 0.00 0.01 0.01 43 1012.1
20260509172517 71 0.0 0.0 0.00 0.01 0.01 41 1012.2
20260509171537 72 0.0 0.0 0.00 0.01 0.01 39 1012.3
20260509170537 72 0.0 0.0 0.00 0.01 0.01 39 1012.3
20260509165517 72 0.0 0.0 0.00 0.01 0.01 38 1012.3
20260509164537 72 0.0 0.0 0.00 0.01 0.01 38 1012.4
20260509163517 72 0.0 1.0 0.00 0.01 0.01 38 1012.5
20260509162516 72 0.0 1.0 0.00 0.01 0.01 38 1012.5
20260509161516 73 0.0 0.0 0.00 0.01 0.01 37 1012.7
20260509160517 73 0.0 1.0 0.00 0.01 0.01 35 1012.5
20260509155516 73 0.0 2.0 0.00 0.01 0.01 35 1012.6
20260509154516 73 0.0 3.0 0.00 0.01 0.01 37 1012.9
20260509153517 73 0.0 2.0 0.00 0.01 0.01 34 1013.0
20260509152557 73 0.0 2.0 0.00 0.01 0.01 35 1013.0
20260509151517 73 0.0 1.0 0.00 0.01 0.01 35 1013.1
20260509150517 73 0.0 2.0 0.00 0.01 0.01 32 1013.2
20260509145516 73 0.0 1.0 0.00 0.01 0.01 36 1013.4
20260509144516 72 0.0 3.0 0.00 0.01 0.01 33 1013.6
20260509143516 72 0.0 3.0 0.00 0.01 0.01 36 1013.8
20260509142516 72 0.0 2.0 0.00 0.01 0.01 37 1013.8
20260509141516 72 0.0 1.0 0.00 0.01 0.01 42 1013.8
20260509140557 72 0.0 3.0 0.00 0.01 0.01 41 1014.1
20260509135516 72 0.0 3.0 0.00 0.01 0.01 41 1014.1
20260509134517 71 0.0 2.0 0.00 0.01 0.01 44 1014.3
20260509133536 71 0.0 2.0 0.00 0.01 0.01 46 1014.4
20260509132537 71 23 1.0 3.0 0.00 0.01 0.01 44 1014.5
20260509131537 70 0.0 3.0 0.00 0.01 0.01 43 1014.7
20260509130517 70 23 1.0 3.0 0.00 0.01 0.01 44 1014.8
20260509125516 71 0.0 4.0 0.00 0.01 0.01 45 1015.0
20260509124536 71 0.0 2.0 0.00 0.01 0.01 42 1015.0
20260509123556 70 0.0 2.0 0.00 0.01 0.01 43 1015.1
20260509122538 70 0.0 3.0 0.00 0.01 0.01 44 1015.3
20260509121516 70 0 1.0 3.0 0.00 0.01 0.01 46 1015.4
20260509120516 70 0.0 3.0 0.00 0.01 0.01 48 1015.5
20260509115516 70 0.0 3.0 0.00 0.01 0.01 50 1015.7
20260509114516 70 0.0 4.0 0.00 0.01 0.01 54 1015.9
20260509113536 70 0.0 1.0 0.00 0.01 0.01 57 1016.0
20260509112516 69 0.0 4.0 0.00 0.01 0.01 61 1016.1
20260509111516 69 0.0 2.0 0.00 0.01 0.01 63 1016.2
20260509110536 68 0.0 2.0 0.00 0.01 0.01 68 1016.3
20260509105516 68 0.0 2.0 0.00 0.01 0.01 67 1016.4
20260509104516 68 0.0 2.0 0.00 0.01 0.01 67 1016.5
20260509103516 67 0.0 3.0 0.00 0.01 0.01 69 1016.8
20260509102536 67 0.0 4.0 0.00 0.01 0.01 68 1016.6
20260509101516 66 0.0 2.0 0.00 0.01 0.01 69 1016.9
20260509100536 65 0.0 0.0 0.00 0.01 0.01 72 1016.8
20260509095537 65 0.0 0.0 0.00 0.01 0.01 71 1016.8
20260509094516 64 0.0 0.0 0.00 0.01 0.01 71 1016.9
20260509093516 64 0.0 0.0 0.00 0.01 0.01 71 1017.0
20260509092516 64 0.0 0.0 0.00 0.01 0.01 70 1017.0
20260509091516 64 0.0 0.0 0.00 0.01 0.01 73 1017.1
20260509090516 63 0.0 0.0 0.00 0.01 0.01 72 1017.1
20260509085516 62 0.0 0.0 0.00 0.01 0.01 72 1017.1
20260509084536 62 0.0 0.0 0.00 0.01 0.01 73 1017.1
20260509083516 61 0.0 0.0 0.00 0.01 0.01 75 1017.2
20260509082516 61 0.0 0.0 0.00 0.01 0.01 77 1017.3
20260509081516 61 0.0 0.0 0.00 0.01 0.01 76 1017.4
20260509080536 61 0.0 0.0 0.00 0.01 0.01 79 1017.5
20260509075516 59 0.0 0.0 0.00 0.01 0.01 81 1017.6
20260509074516 59 0.0 0.0 0.00 0.01 0.01 82 1017.7
20260509073516 59 0.0 0.0 0.00 0.01 0.01 82 1017.6
20260509072517 60 0.0 0.0 0.00 0.01 0.01 84 1017.5
20260509071516 59 0.0 0.0 0.00 0.01 0.01 86 1017.6
20260509070516 58 0.0 0.0 0.00 0.01 0.01 89 1017.3
20260509065516 57 0.0 0.0 0.00 0.01 0.01 91 1017.3
20260509064516 56 0.0 0.0 0.00 0.01 0.01 92 1017.4
20260509063536 56 0.0 0.0 0.00 0.01 0.01 93 1017.2
20260509062516 54 0.0 0.0 0.00 0.01 0.01 93 1017.1
20260509061516 53 0.0 0.0 0.00 0.01 0.01 93 1017.1
20260509060516 52 0.0 0.0 0.00 0.01 0.01 93 1017.1
20260509055516 52 0.0 0.0 0.00 0.01 0.01 92 1017.1
20260509054516 51 0.0 0.0 0.00 0.01 0.01 92 1017.0
20260509053516 50 0.0 0.0 0.00 0.01 0.01 92 1017.0
20260509052516 50 0.0 0.0 0.00 0.01 0.01 91 1017.0
20260509051516 50 0.0 0.0 0.00 0.01 0.01 91 1016.8
20260509050516 50 0.0 0.0 0.00 0.01 0.01 90 1016.5
20260509045516 50 0.0 0.0 0.00 0.01 0.01 90 1016.5
20260509044536 50 0.0 0.0 0.00 0.01 0.01 90 1016.6
20260509043516 50 0.0 0.0 0.00 0.01 0.01 90 1016.4
20260509042516 50 0.0 0.0 0.00 0.01 0.01 90 1016.4
20260509041516 51 0.0 0.0 0.00 0.01 0.01 90 1016.4
20260509040516 51 0.0 0.0 0.00 0.01 0.01 90 1016.6
20260509035516 51 0.0 0.0 0.00 0.01 0.01 90 1016.7
20260509034536 51 0.0 0.0 0.00 0.01 0.01 90 1016.6
20260509033516 51 0.0 0.0 0.00 0.01 0.01 90 1016.6
20260509032536 52 0.0 0.0 0.00 0.01 0.01 90 1016.6
20260509031516 51 0.0 0.0 0.00 0.01 0.01 90 1016.6